Home   Weather   Katowice   Past weeks

Flag for Poland Past Weather in Katowice, Poland — Yesterday and Last 2 Weeks

Now
16 °F

Ice fog.


Feels Like: 10 °F
Forecast: 7 / 26 °F
Wind: 3 mph from Northeast

Location: Katowice Airport

Current Time: Jan 19, 2017 at 3:41:59 am

Latest Report: Jan 19, 2017 at 3:00 am


Visibility: 3 mi

Pressure: 30.66 "Hg

Humidity: 93%

Dew Point: 14 °F

Location of KatowiceLocation

Past Weather in Katowice — Graph

°F

Katowice Temperature Yesterday

Maximum temperature yesterday: 25 °F (at 12:00 am)
Minimum temperature yesterday: 18 °F (at 8:30 pm)
Average temperature yesterday: 20 °F

High & Low Weather Summary for the Past Weeks

 TemperatureHumidityPressure
High39 °F (Jan 13, 11:30 am)100% (Jan 4, 10:30 am)30.69 "Hg (Jan 4, 10:30 am)
Low-20 °F (Jan 7, 7:00 am)46% (Jan 9, 2:00 pm)29.30 "Hg (Jan 13, 2:00 pm)
Average18 °F82%30.05 "Hg
* Reported Jan 4 2:00 am — Jan 19 2:30 am, Katowice, Weather by CustomWeather, © 2017

Note: Actual official high and low records may vary slightly from our data, if they occured in-between our weather recording intervals... More about our weather records

Advertising

Katowice Weather History for the Previous 24 Hours

Scroll right to see more
 ConditionsComfort  
Time TempWeatherWind HumidityBarometerVisibility
2:30 am
Thu, Jan 19
16 °FSnow flurries. Low clouds.6 mph93%30.66 "Hg4 mi
2:00 am16 °FLow clouds.6 mph93%30.66 "Hg4 mi
1:30 am16 °FSnow flurries. Low clouds.8 mph93%30.66 "Hg4 mi
1:00 am16 °FSnow flurries. Mostly cloudy.6 mph93%30.66 "Hg4 mi
12:30 am18 °FLow clouds.6 mph86%30.66 "Hg4 mi
12:00 am18 °FLow clouds.7 mph86%30.66 "Hg4 mi
11:30 pm
Wed, Jan 18
18 °FLow clouds.5 mph93%30.69 "Hg4 mi
11:00 pm18 °FLow clouds.7 mph93%30.69 "Hg4 mi
10:30 pm18 °FIce fog.6 mph93%30.69 "Hg3 mi
10:00 pm18 °FLow clouds.8 mph93%30.69 "Hg4 mi
9:30 pm18 °FIce fog.8 mph93%30.69 "Hg3 mi
9:00 pm18 °FIce fog.6 mph93%30.69 "Hg2 mi
8:30 pm18 °FIce fog.8 mph93%30.69 "Hg2 mi
8:00 pm19 °FIce fog.9 mph86%30.69 "Hg2 mi
7:30 pm19 °FIce fog.7 mph86%30.69 "Hg3 mi
7:00 pm19 °FIce fog.8 mph86%30.69 "Hg3 mi
6:30 pm19 °FIce fog.8 mph86%30.66 "Hg3 mi
6:00 pm19 °FIce fog.7 mph86%30.69 "Hg3 mi
5:30 pm19 °FIce fog.8 mph79%30.69 "Hg3 mi
5:00 pm19 °FIce fog.7 mph79%30.69 "Hg3 mi
4:30 pm19 °FIce fog.7 mph86%30.69 "Hg3 mi
4:00 pm19 °FIce fog.8 mph79%30.69 "Hg3 mi
3:30 pm19 °FMore clouds than sun.8 mph79%30.66 "Hg4 mi
3:00 pm19 °FIce fog.9 mph86%30.66 "Hg3 mi
2:30 pm19 °FOvercast.10 mph79%30.66 "Hg4 mi
2:00 pm19 °FOvercast.10 mph79%30.66 "Hg5 mi
1:30 pm21 °FOvercast.9 mph74%30.66 "Hg6 mi
1:00 pm19 °FOvercast.9 mph86%30.66 "Hg5 mi
12:30 pm19 °FOvercast.9 mph86%30.66 "Hg5 mi
12:00 pm19 °FOvercast.8 mph79%30.66 "Hg5 mi
11:30 am19 °FPartly sunny.10 mph86%30.66 "Hg5 mi
11:00 am19 °FLow clouds.8 mph86%30.66 "Hg4 mi
10:30 am19 °FLow clouds.10 mph86%30.66 "Hg4 mi
10:00 am19 °FLow clouds.7 mph86%30.66 "Hg4 mi
9:30 am19 °FLow clouds.9 mph86%30.66 "Hg4 mi
9:00 am19 °FLow clouds.8 mph86%30.66 "Hg4 mi
8:30 am19 °FLow clouds.7 mph86%30.63 "Hg4 mi
8:00 am21 °FLow clouds.8 mph80%30.63 "Hg4 mi
7:30 am21 °FLow clouds.9 mph86%30.63 "Hg4 mi
7:00 am21 °FLow clouds.7 mph86%30.63 "Hg4 mi
6:30 am21 °FLow clouds.8 mph86%30.60 "Hg4 mi
6:00 am21 °FLow clouds.8 mph86%30.60 "Hg4 mi
5:30 am23 °FLow clouds.8 mph80%30.60 "Hg4 mi
5:00 am23 °FLow clouds.8 mph80%30.60 "Hg4 mi
4:30 am23 °FIce fog.10 mph86%30.60 "Hg3 mi
4:00 am23 °FIce fog.9 mph86%30.60 "Hg3 mi
3:30 am23 °FLow clouds.8 mph86%30.60 "Hg4 mi
3:00 am23 °FLow clouds.9 mph93%30.60 "Hg4 mi
Weather by CustomWeather, © 2017

See weather overviewHow to use our weather pages